This is the latest recevied weather packets stored in our database for station/object KD5GAT-51. If no packets are shown the sender has not sent any weather packets the latest 10 day(s).
| Time | Temp. | Humidity | Pressure | Rain* | Wind** | Luminosity | Snow |
|---|---|---|---|---|---|---|---|
| 1777563632 | 22.22° C | 100% | 1014.9 hPa | - | - | - | - |
| 1777562732 | 22.22° C | 100% | 1014.8 hPa | - | - | - | - |
| 1777561832 | 21.67° C | 100% | 1014.2 hPa | - | - | - | - |
| 1777560932 | 20.56° C | 100% | 1014.6 hPa | - | - | - | - |
| 1777560032 | 20° C | 100% | 1014.7 hPa | - | - | - | - |
| 1777559132 | 19.44° C | 100% | 1014.6 hPa | - | - | - | - |
| 1777558231 | 19.44° C | 100% | 1014.3 hPa | - | - | - | - |
| 1777557331 | 18.89° C | 100% | 1014.5 hPa | - | - | - | - |
| 1777556431 | 18.33° C | 100% | 1014.3 hPa | - | - | - | - |
| 1777555531 | 17.78° C | 100% | 1014.4 hPa | - | - | - | - |
| 1777554631 | 17.78° C | 100% | 1014.7 hPa | - | - | - | - |
| 1777553731 | 17.22° C | 100% | 1014.6 hPa | - | - | - | - |
| 1777552830 | 17.22° C | 100% | 1014.5 hPa | - | - | - | - |
| 1777551930 | 16.67° C | 100% | 1014.7 hPa | - | - | - | - |
| 1777551030 | 16.67° C | 100% | 1014.1 hPa | - | - | - | - |
| 1777550130 | 16.67° C | 100% | 1014.2 hPa | - | - | - | - |
| 1777549230 | 16.67° C | 100% | 1014 hPa | - | - | - | - |
| 1777548330 | 17.22° C | 100% | 1014.2 hPa | - | - | - | - |
| 1777547429 | 17.22° C | 100% | 1014 hPa | - | - | - | - |
| 1777546529 | 17.22° C | 100% | 1013.7 hPa | - | - | - | - |
| 1777545629 | 17.22° C | 100% | 1013.4 hPa | - | - | - | - |
| 1777544728 | 16.67° C | 100% | 1013.4 hPa | - | - | - | - |
| 1777543828 | 16.67° C | 100% | 1012.8 hPa | - | - | - | - |
| 1777542936 | 16.67° C | 100% | 1012 hPa | - | - | - | - |
| 1777542036 | 16.67° C | 100% | 1012.7 hPa | - | - | - | - |
* Rain since midnight (hover to see other rain measurements)
** Current wind speed in m/s (hover to see current wind gust speed)